This demonstration page uses our WeatherBlox Daily Observations layout. Learn more.

Left ArrowRight Arrow

Hourly Observations for February 17, 2018

Temp ( °F °C ) Dew Point ( °F °C ) Humidity (%) Winds ( mph kmh ) Pressure ( in mb ) Visibility ( mi km ) Precip ( " mm )
12:15 am 00:15 Clear 36 2 28 -2 75 75 N 10 17 30.3 1026 10 16.0934 0 0
12:35 am 00:35 Clear 36 2 28 -2 75 75 N 5 7 30.3 1026 10 16.0934 0 0
12:55 am 00:55 Clear 36 2 28 -2 75 75 NNE 3 6 30.3 1026 10 16.0934 0 0
1:15 am 01:15 Clear 36 2 28 -2 75 75 N 3 6 30.33 1027 10 16.0934 0 0
1:35 am 01:35 Clear 36 2 28 -2 75 75 NNE 6 9 30.33 1027 10 16.0934 0 0
1:55 am 01:55 Clear 34 1 28 -2 81 81 NNE 6 9 30.33 1027 10 16.0934 0 0
2:15 am 02:15 Clear 34 1 28 -2 81 81 N 3 6 30.33 1027 10 16.0934 0 0
2:35 am 02:35 Clear 34 1 28 -2 81 81 NNE 5 7 30.33 1027 10 16.0934 0 0
2:55 am 02:55 Clear 34 1 27 -3 75 75 N 8 13 30.33 1027 10 16.0934 0 0
3:15 am 03:15 Clear 34 1 27 -3 75 75 ESE 7 11 30.36 1028 10 16.0934 0 0
3:35 am 03:35 Clear 32 0 28 -2 87 87 Calm 30.36 1028 10 16.0934 0 0
3:55 am 03:55 Clear 32 0 28 -2 87 87 N 6 9 30.36 1028 10 16.0934 0 0
4:15 am 04:15 Clear 32 0 28 -2 87 87 NNE 5 7 30.36 1028 10 16.0934 0 0
4:35 am 04:35 Clear 32 0 28 -2 87 87 N 6 9 30.36 1028 10 16.0934 0 0
4:55 am 04:55 Clear 32 0 28 -2 87 87 NE 5 7 30.39 1029 10 16.0934 0 0
5:15 am 05:15 Clear 32 0 28 -2 87 87 Calm 30.39 1029 10 16.0934 0 0
5:35 am 05:35 Clear 32 0 28 -2 87 87 NE 5 7 30.39 1029 10 16.0934 0 0
5:55 am 05:55 Clear 32 0 27 -3 80 80 N 3 6 30.39 1029 10 16.0934 0 0
6:15 am 06:15 Clear 32 0 28 -2 87 87 NE 3 6 30.39 1029 10 16.0934 0 0
6:35 am 06:35 Clear 32 0 27 -3 80 80 NNE 3 6 30.39 1029 10 16.0934 0 0
6:55 am 06:55 Clear 32 0 27 -3 80 80 NNE 3 6 30.39 1029 10 16.0934 0 0
7:15 am 07:15 Sunny 32 0 27 -3 80 80 NE 5 7 30.39 1029 10 16.0934 0 0
7:35 am 07:35 Sunny 32 0 27 -3 80 80 NE 3 6 30.39 1029 10 16.0934 0 0
7:55 am 07:55 Sunny 32 0 27 -3 80 80 Calm 30.39 1029 10 16.0934 0 0
8:15 am 08:15 Sunny 32 0 27 -3 80 80 Calm 30.39 1029 10 16.0934 0 0
8:35 am 08:35 Sunny 34 1 27 -3 75 75 Calm 30.39 1029 10 16.0934 0 0
8:55 am 08:55 Sunny 34 1 27 -3 75 75 SE 3 6 30.42 1030 10 16.0934 0 0
9:15 am 09:15 Sunny 36 2 27 -3 70 70 ENE 8 13 30.39 1029 10 16.0934 0 0
9:35 am 09:35 Sunny 36 2 27 -3 70 70 E 3 6 30.42 1030 10 16.0934 0 0
9:55 am 09:55 Sunny 36 2 27 -3 70 70 ESE 5 7 30.39 1029 10 16.0934 0 0
10:15 am 10:15 Sunny 37 3 27 -3 65 65 ESE 6 9 30.39 1029 10 16.0934 0 0
10:35 am 10:35 Sunny 39 4 27 -3 61 61 SE 7 11 30.39 1029 10 16.0934 0 0
10:55 am 10:55 Sunny 39 4 27 -3 61 61 SE 8 13 30.36 1028 10 16.0934 0 0
11:15 am 11:15 Sunny 41 5 27 -3 57 57 S 12 19 30.36 1028 10 16.0934 0 0
11:35 am 11:35 Sunny 41 5 27 -3 57 57 SSE 9 15 30.33 1027 10 16.0934 0 0
11:55 am 11:55 Partly Cloudy 43 6 27 -3 53 53 SSE 10 17 30.33 1027 10 16.0934 0 0
12:15 pm 12:15 Mostly Cloudy 43 6 27 -3 53 53 S 10 17 30.3 1026 10 16.0934 0 0
12:35 pm 12:35 Cloudy 43 6 27 -3 53 53 S 12 19 30.27 1025 10 16.0934 0 0
12:55 pm 12:55 Cloudy 43 6 28 -2 57 57 SSW 9 15 30.27 1025 10 16.0934 0 0
1:15 pm 13:15 Cloudy 43 6 27 -3 53 53 S 8 13 30.27 1025 10 16.0934 0 0
1:35 pm 13:35 Cloudy 41 5 28 -2 61 61 SSW 6 9 30.27 1025 10 16.0934 0 0
1:55 pm 13:55 Cloudy 41 5 28 -2 61 61 WSW 3 6 30.3 1026 10 16.0934 0 0
2:15 pm 14:15 Cloudy with Light Snow 39 4 32 0 75 75 W 5 7 30.3 1026 4 6.43736 0 0
2:35 pm 14:35 Cloudy with Light Snow 37 3 32 0 81 81 Calm 30.3 1026 2.5 4.02335 0 0
2:55 pm 14:55 Cloudy with Light Snow 36 2 34 1 93 93 Calm 30.27 1025 1 1.60934 0 0
3:15 pm 15:15 Cloudy with Light Snow 34 1 34 1 100 100 Calm 30.24 1024 0.75 1.207005 0 0
3:35 pm 15:35 Cloudy with Light Snow 34 1 34 1 100 100 Calm 30.27 1025 1 1.60934 0 0
3:55 pm 15:55 Cloudy with Light Snow 34 1 34 1 100 100 Calm 30.24 1024 1.5 2.41401 0 0
4:15 pm 16:15 Cloudy with Light Snow 34 1 34 1 100 100 Calm 30.24 1024 0.75 1.207005 0 0
4:35 pm 16:35 Cloudy with Snow 32 0 32 0 100 100 Calm 30.24 1024 0.25 0.402335 0 0
4:55 pm 16:55 Cloudy with Snow 32 0 32 0 100 100 SE 3 6 30.21 1023 0.5 0.80467 0 0
5:15 pm 17:15 Cloudy with Light Snow 32 0 32 0 100 100 SSE 8 13 30.18 1022 0.5 0.80467 0 0
5:35 pm 17:35 Cloudy with Snow 32 0 32 0 100 100 SSE 8 13 30.18 1022 0.5 0.80467 0 0
5:55 pm 17:55 Cloudy with Light Snow 32 0 32 0 100 100 SSE 8 13 30.18 1022 2.5 4.02335 0 0
6:15 pm 18:15 Cloudy with Light Snow 32 0 32 0 100 100 S 9 15 30.18 1022 3 4.82802 0 0
6:35 pm 18:35 Cloudy with Light Snow 32 0 32 0 100 100 S 9 15 30.18 1022 5 8.0467 0 0
6:55 pm 18:55 Cloudy with Light Wintry Mix 32 0 32 0 100 100 SSW 6 9 30.18 1022 5 8.0467 0 0
7:15 pm 19:15 Cloudy with Light Wintry Mix 32 0 32 0 100 100 S 7 11 30.18 1022 5 8.0467 0 0
7:35 pm 19:35 Cloudy with Mist and Fog 32 0 32 0 100 100 S 8 13 30.15 1021 5 8.0467 0 0
7:55 pm 19:55 Cloudy with Light Snow 32 0 32 0 100 100 S 12 19 30.12 1020 5 8.0467 0 0
8:15 pm 20:15 Cloudy with Mist and Fog 32 0 32 0 100 100 S 9 15 30.12 1020 5 8.0467 0 0
8:35 pm 20:35 Cloudy with Mist and Fog 32 0 32 0 100 100 SSW 5 7 30.12 1020 5 8.0467 0 0
8:55 pm 20:55 Cloudy with Mist and Fog 32 0 32 0 100 100 S 3 6 30.12 1020 5 8.0467 0 0
9:15 pm 21:15 Cloudy with Mist and Fog 32 0 32 0 100 100 Calm 30.12 1020 4 6.43736 0 0
9:35 pm 21:35 Cloudy with Mist and Fog 32 0 32 0 100 100 Calm 30.12 1020 3 4.82802 0 0
9:55 pm 21:55 Cloudy with Mist and Fog 32 0 32 0 100 100 Calm 30.12 1020 1.75 2.816345 0 0
10:15 pm 22:15 Cloudy with Mist and Fog 32 0 32 0 100 100 S 3 6 30.09 1019 0.75 1.207005 0 0
10:35 pm 22:35 Cloudy with Fog 32 0 32 0 100 100 S 3 6 30.09 1019 0.5 0.80467 0 0
10:55 pm 22:55 Cloudy with Fog 32 0 32 0 100 100 S 3 6 30.09 1019 0.25 0.402335 0 0
11:15 pm 23:15 Cloudy with Fog 32 0 32 0 100 100 S 5 7 30.09 1019 0.25 0.402335 0 0
11:35 pm 23:35 Cloudy with Fog 32 0 32 0 100 100 Calm 30.09 1019 0.5 0.80467 0 0
11:55 pm 23:55 Cloudy with Mist and Fog 32 0 32 0 100 100 Calm 30.06 1018 2 3.21868 0 0

Powered by AerisWeather